User: anonymous   Login
Location: Freistadt
(48.5112°N, 14.5013°E)
Time: 18:41:07
(UTC+02:00)
Language:

Cosmos 2228 Rocket - Orbit

View from above orbital plane
View from above orbital plane
View from above satellite
View from above satellite

Ground track
Ground track

The orbit data is extracted from the following two-line orbital elements,

1 22287U 92094B   24149.20449682  .00000529  00000-0  68166-4 0  9997
2 22287  82.5253 238.2671 0023093 310.7359  49.1848 14.79070413693369
Epoch (UTC): 28 May 2024 04:54:28
Eccentricity: 0.0023093
inclination: 82.5253°
perigee height: 616 km
apogee height: 648 km
right ascension of ascending node: 238.2671°
argument of perigee: 310.7359°
revolutions per day: 14.79070413
mean anomaly at epoch: 49.1848°
orbit number at epoch: 69336

The dashed part of the orbit path shows where the satellite is in the earth's shadow,  

DLR